This demonstration page uses our WeatherBlox Daily Observations layout. Learn more.

Left ArrowRight Arrow

Hourly Observations for July 29, 2015

Temp ( °F °C ) Dew Point ( °F °C ) Humidity (%) Winds ( mph kmh ) Pressure ( in mb ) Visibility ( mi km ) Precip ( " mm )
12:38 am 00:38 Clear with Nearby Thunderstorms 88 31 59 15 38 38 SSE 15 24 29.80 1009 10 16 0.00 0.00
12:53 am 00:53 Clear 87 30.6 59 15 39 39 SSE 13 20 29.84 1010 10 16 0.00 0.00
1:53 am 01:53 Mostly Cloudy 86 30 60 15.6 42 42 SE 7 11 29.86 1011 10 16 0.00 0.00
2:53 am 02:53 Mostly Cloudy 85 29.4 61 16.1 45 45 WNW 8 13 29.87 1012 10 16 0.00 0.00
3:53 am 03:53 Clear 79 26.1 62 16.7 56 56 NNE 9 15 29.87 1011 10 16 0.00 0.00
4:53 am 04:53 Clear 78 25.6 62 16.7 58 58 N 9 15 29.88 1012 10 16 0.00 0.00
5:53 am 05:53 Clear 76 24.4 62 16.7 62 62 NNE 10 17 29.89 1012 10 16 0.00 0.00
6:53 am 06:53 Clear 75 23.9 62 16.7 64 64 NNE 8 13 29.90 1013 10 16 0.00 0.00
7:53 am 07:53 Sunny 76 24.4 62 16.7 62 62 NNE 9 15 29.93 1013 10 16 0.00 0.00
8:53 am 08:53 Sunny 80 26.7 62 16.7 54 54 NE 9 15 29.93 1014 10 16 0.00 0.00
9:53 am 09:53 Sunny 85 29.4 61 16.1 45 45 ENE 9 15 29.94 1014 10 16 0.00 0.00
10:53 am 10:53 Sunny 89 31.7 62 16.7 41 41 NE 6 9 29.94 1014 10 16 0.00 0.00
11:53 am 11:53 Sunny 92 33.3 62 16.7 37 37 E 10 17 29.94 1014 10 16 0.00 0.00
12:53 pm 12:53 Sunny 95 35 61 16.1 32 32 E 8 13 29.93 1014 10 16 0.00 0.00
1:53 pm 13:53 Sunny 97 36.1 55 12.8 24 24 ESE 14 22 29.92 1013 10 16 0.00 0.00
2:53 pm 14:53 Mostly Sunny 97 36.1 54 12.2 24 24 ESE 14 22 29.90 1013 10 16 0.00 0.00
3:53 pm 15:53 Partly Cloudy 100 37.8 54 12.2 21 21 undefined N/A 29.88 1012 10 16 0.00 0.00
4:53 pm 16:53 Partly Cloudy 98 36.7 54 12.2 23 23 ESE 10 17 29.86 1011 10 16 0.00 0.00
5:53 pm 17:53 Mostly Sunny 101 38.3 52 11.1 19 19 ESE 18 30 29.83 1010 10 16 0.00 0.00
6:53 pm 18:53 Sunny 99 37.2 50 10 19 19 SE 14 22 29.84 1010 10 16 0.00 0.00
7:53 pm 19:53 Mostly Sunny 98 36.7 50 10 20 20 SE 12 19 29.85 1011 10 16 0.00 0.00
8:53 pm 20:53 Clear 94 34.4 50 10 22 22 SE 8 13 29.85 1011 10 16 0.00 0.00
9:53 pm 21:53 Mostly Cloudy 89 31.7 55 12.8 31 31 SW 10 17 29.88 1012 10 16 0.00 0.00
10:53 pm 22:53 Mostly Clear 86 30 57 13.9 37 37 SW 3 6 29.91 1013 10 16 0.00 0.00
11:53 pm 23:53 Mostly Clear 83 28.3 56 13.3 40 40 Calm 29.92 1013 10 16 0.00 0.00

Powered by AerisWeather